Location: Betpouey
(42.8833°N, 0.0333°E)
Time: 22:22:47
(UTC+00:00)

Cosmos 1470 Rocket - Pass Details

Date: 01 December 2020
Orbit: 604 x 633 km, 82.5° (Epoch: 18 January)

Event Time Altitude Azimuth Distance (km) Brightness Sun altitude
Rises 17:07:28 0° 0° (N) 2,871 6.7 -7.5°
Reaches altitude 10° 17:09:51 10° 10° (N) 1,961 5.8 -8.0°
Maximum altitude 17:13:48 34° 76° (ENE) 1,003 4.1 -8.6°
Drops below altitude 10° 17:17:44 10° 142° (SE) 1,948 5.9 -9.3°
Sets 17:20:06 0° 151° (SSE) 2,848 6.9 -9.7°
